TimeEDT,TemperatureF,Dew PointF,Humidity,Sea Level PressureIn,VisibilityMPH,Wind Direction,Wind SpeedMPH,Gust SpeedMPH,PrecipitationIn,Events,Conditions,WindDirDegrees,DateUTC
12:51 AM,68.0,55.9,65,29.96,10.0,South,8.1,-,N/A,,Clear,170,2013-08-07 04:51:00
1:51 AM,68.0,55.9,65,29.96,10.0,SSE,8.1,-,N/A,,Clear,160,2013-08-07 05:51:00
2:51 AM,68.0,57.9,70,29.95,10.0,SSE,11.5,-,N/A,,Clear,160,2013-08-07 06:51:00
3:51 AM,68.0,59.0,73,29.96,10.0,SSE,12.7,-,N/A,,Clear,160,2013-08-07 07:51:00
4:51 AM,66.9,59.0,76,29.95,10.0,SSE,12.7,-,N/A,,Clear,160,2013-08-07 08:51:00
5:51 AM,66.9,59.0,76,29.94,10.0,SSE,13.8,-,N/A,,Clear,160,2013-08-07 09:51:00
6:51 AM,66.0,60.1,81,29.94,10.0,SSE,12.7,-,N/A,,Clear,160,2013-08-07 10:51:00
7:51 AM,68.0,61.0,78,29.94,10.0,SSE,16.1,-,N/A,,Partly Cloudy,160,2013-08-07 11:51:00
8:51 AM,71.1,61.0,70,29.95,10.0,South,13.8,-,N/A,,Clear,170,2013-08-07 12:51:00
9:51 AM,75.0,62.1,64,29.93,10.0,South,17.3,20.7,N/A,,Clear,170,2013-08-07 13:51:00
10:51 AM,78.1,62.1,58,29.93,10.0,South,10.4,-,N/A,,Unknown,180,2013-08-07 14:51:00
11:51 AM,79.0,63.0,58,29.92,10.0,South,12.7,-,N/A,,Mostly Cloudy,190,2013-08-07 15:51:00
12:51 PM,80.1,64.0,58,29.91,10.0,South,17.3,25.3,N/A,,Partly Cloudy,180,2013-08-07 16:51:00
1:51 PM,75.9,68.0,76,29.92,7.0,SSW,9.2,-,0.01,Rain,Light Rain,200,2013-08-07 17:51:00
2:51 PM,78.1,66.9,68,29.90,10.0,South,12.7,19.6,0.00,,Clear,190,2013-08-07 18:51:00
3:51 PM,80.1,66.9,64,29.88,10.0,South,18.4,25.3,N/A,,Clear,190,2013-08-07 19:51:00
4:51 PM,78.1,66.0,66,29.88,10.0,SSW,16.1,21.9,N/A,,Clear,200,2013-08-07 20:51:00
5:51 PM,79.0,63.0,58,29.87,10.0,South,13.8,-,N/A,,Clear,180,2013-08-07 21:51:00
6:51 PM,79.0,64.0,60,29.87,10.0,SSW,8.1,-,N/A,,Clear,200,2013-08-07 22:51:00
7:51 PM,77.0,64.9,66,29.89,10.0,South,10.4,-,N/A,,Clear,180,2013-08-07 23:51:00
8:51 PM,73.9,64.0,71,29.90,10.0,South,9.2,-,N/A,,Clear,180,2013-08-08 00:51:00
9:51 PM,73.0,63.0,71,29.91,10.0,South,12.7,-,N/A,,Partly Cloudy,180,2013-08-08 01:51:00
10:51 PM,73.0,64.0,73,29.91,10.0,South,12.7,-,N/A,,Clear,170,2013-08-08 02:51:00
11:51 PM,72.0,64.9,78,29.93,10.0,South,13.8,-,N/A,,Clear,170,2013-08-08 03:51:00